KLM790 TNCC-TNCM

Flight info

Callsign KLM790
Flight time 1h 23m
Altitude 41000
Route SCAPA1K SCAPA L335 MLIZA L204 GOUDA
Aircraft B772/H-SDE2E3FGHIJ5LORVWXY/LB1D1

Departure

Time 2026-04-26 17:19
Airport Hato International Airport (TNCC)

Arrival

Time 2026-04-26 18:43
Airport Princess Juliana International Airport (TNCM)
Time Latitude Longitude Altitude Speed Heading
2026-04-26 16:41 12.18561 -68.95796 60 ft 0 kts 192°
2026-04-26 17:07 12.18564 -68.95795 60 ft 2 kts 192°
2026-04-26 17:07 12.18578 -68.95792 59 ft 2 kts 192°
2026-04-26 17:07 12.18591 -68.95789 59 ft 2 kts 192°
2026-04-26 17:08 12.18606 -68.95786 58 ft 2 kts 192°
2026-04-26 17:08 12.18621 -68.95782 57 ft 2 kts 200°
2026-04-26 17:08 12.18635 -68.95775 56 ft 2 kts 219°
2026-04-26 17:08 12.18647 -68.95763 55 ft 2 kts 234°
2026-04-26 17:09 12.18655 -68.95749 54 ft 2 kts 250°
2026-04-26 17:09 12.18658 -68.95739 54 ft 2 kts 259°
2026-04-26 17:09 12.18659 -68.95718 54 ft 1 kts 279°
2026-04-26 17:09 12.18658 -68.95712 54 ft 0 kts 283°
2026-04-26 17:13 12.18661 -68.95730 54 ft 4 kts 281°
2026-04-26 17:14 12.18669 -68.95773 54 ft 7 kts 281°
2026-04-26 17:14 12.18700 -68.95917 56 ft 13 kts 282°
2026-04-26 17:14 12.18721 -68.96018 56 ft 15 kts 281°
2026-04-26 17:15 12.18780 -68.96293 57 ft 22 kts 282°
2026-04-26 17:15 12.18813 -68.96457 56 ft 25 kts 283°
2026-04-26 17:15 12.18848 -68.96620 57 ft 13 kts 282°
2026-04-26 17:16 12.18868 -68.96725 56 ft 16 kts 280°
2026-04-26 17:16 12.18896 -68.96850 55 ft 20 kts 281°
2026-04-26 17:16 12.18927 -68.96999 55 ft 22 kts 282°
2026-04-26 17:16 12.18962 -68.97165 54 ft 25 kts 283°
2026-04-26 17:17 12.19000 -68.97342 55 ft 24 kts 281°
2026-04-26 17:17 12.19034 -68.97507 54 ft 12 kts 281°
2026-04-26 17:17 12.19051 -68.97566 54 ft 9 kts 301°
2026-04-26 17:17 12.19122 -68.97580 52 ft 13 kts 12°
2026-04-26 17:18 12.19198 -68.97559 49 ft 10 kts 34°
2026-04-26 17:18 12.19213 -68.97479 48 ft 14 kts 101°
2026-04-26 17:18 12.19183 -68.97342 49 ft 31 kts 102°
2026-04-26 17:18 12.19084 -68.96877 48 ft 106 kts 103°
2026-04-26 17:19 12.18638 -68.94724 598 ft 175 kts 102°
2026-04-26 17:19 12.18385 -68.93523 1422 ft 178 kts 102°
2026-04-26 17:19 12.18122 -68.92345 2110 ft 179 kts 101°
2026-04-26 17:20 12.17870 -68.91061 2536 ft 198 kts 100°
2026-04-26 17:20 12.17703 -68.90154 2867 ft 208 kts 101°
2026-04-26 17:20 12.17443 -68.88180 3634 ft 224 kts 86°
2026-04-26 17:20 12.17801 -68.86670 4182 ft 236 kts 66°
2026-04-26 17:21 12.18730 -68.85325 4636 ft 255 kts 45°
2026-04-26 17:21 12.20153 -68.84428 5189 ft 268 kts 22°
2026-04-26 17:21 12.21857 -68.83907 5702 ft 279 kts 17°
2026-04-26 17:21 12.23540 -68.83444 6499 ft 277 kts 17°
2026-04-26 17:22 12.25302 -68.82958 7146 ft 282 kts 17°
2026-04-26 17:22 12.27084 -68.82466 7832 ft 286 kts 17°
2026-04-26 17:22 12.28827 -68.81986 8522 ft 288 kts 17°
2026-04-26 17:22 12.30594 -68.81499 9148 ft 292 kts 17°
2026-04-26 17:23 12.32415 -68.80996 9763 ft 297 kts 16°
2026-04-26 17:23 12.34357 -68.80460 10387 ft 304 kts 16°
2026-04-26 17:23 12.36316 -68.79919 10725 ft 320 kts 16°
2026-04-26 17:23 12.38363 -68.79353 11066 ft 337 kts 16°
2026-04-26 17:24 12.40486 -68.78767 11406 ft 352 kts 16°
2026-04-26 17:24 12.42739 -68.78144 11772 ft 366 kts 16°
2026-04-26 17:24 12.45048 -68.77506 12103 ft 380 kts 16°
2026-04-26 17:24 12.47541 -68.76818 12536 ft 392 kts 16°
2026-04-26 17:25 12.49955 -68.76152 13093 ft 398 kts 16°
2026-04-26 17:25 12.52477 -68.75455 13766 ft 403 kts 15°
2026-04-26 17:25 12.55007 -68.74758 14523 ft 406 kts 15°
2026-04-26 17:25 12.57558 -68.74054 15232 ft 412 kts 15°
2026-04-26 17:26 12.60188 -68.73328 16002 ft 416 kts 15°
2026-04-26 17:26 12.62776 -68.72613 16726 ft 421 kts 15°
2026-04-26 17:26 12.65467 -68.71867 17450 ft 426 kts 16°
2026-04-26 17:26 12.68077 -68.70958 18114 ft 431 kts 20°
2026-04-26 17:27 12.70740 -68.69952 18801 ft 436 kts 20°
2026-04-26 17:27 12.73434 -68.68928 19576 ft 439 kts 20°
2026-04-26 17:27 12.76126 -68.67906 20275 ft 443 kts 20°
2026-04-26 17:27 12.78876 -68.66863 20950 ft 447 kts 20°
2026-04-26 17:28 12.81655 -68.65809 21585 ft 452 kts 20°
2026-04-26 17:28 12.84404 -68.64768 22185 ft 457 kts 20°
2026-04-26 17:28 12.87252 -68.63688 22822 ft 462 kts 20°
2026-04-26 17:28 12.90073 -68.62619 23520 ft 465 kts 19°
2026-04-26 17:29 12.92926 -68.61538 24147 ft 469 kts 19°
2026-04-26 17:29 12.94849 -68.60809 24549 ft 472 kts 19°
2026-04-26 17:29 12.98709 -68.59346 25335 ft 478 kts 19°
2026-04-26 17:29 13.01612 -68.58245 25927 ft 483 kts 19°
2026-04-26 17:30 13.04552 -68.57130 26500 ft 487 kts 19°
2026-04-26 17:30 13.07465 -68.56026 27078 ft 490 kts 19°
2026-04-26 17:30 13.10448 -68.54894 27624 ft 495 kts 19°
2026-04-26 17:30 13.13443 -68.53758 28105 ft 500 kts 19°
2026-04-26 17:31 13.16452 -68.52616 28579 ft 505 kts 18°
2026-04-26 17:31 13.19437 -68.51482 29103 ft 508 kts 19°
2026-04-26 17:31 13.22466 -68.50333 29695 ft 510 kts 19°
2026-04-26 17:31 13.25513 -68.49174 30410 ft 509 kts 19°
2026-04-26 17:32 13.28548 -68.48021 31126 ft 508 kts 19°
2026-04-26 17:32 13.31542 -68.46883 31799 ft 507 kts 19°
2026-04-26 17:32 13.34503 -68.45757 32409 ft 508 kts 19°
2026-04-26 17:32 13.37441 -68.44640 33024 ft 508 kts 19°
2026-04-26 17:33 13.40426 -68.43505 33716 ft 508 kts 19°
2026-04-26 17:33 13.43351 -68.42392 34533 ft 505 kts 19°
2026-04-26 17:33 13.46330 -68.41258 35407 ft 501 kts 19°
2026-04-26 17:34 13.52269 -68.38997 36794 ft 498 kts 20°
2026-04-26 17:34 13.55246 -68.37863 37245 ft 499 kts 20°
2026-04-26 17:34 13.58263 -68.36713 37662 ft 501 kts 20°
2026-04-26 17:34 13.61299 -68.35557 38114 ft 501 kts 20°
2026-04-26 17:35 13.64325 -68.34403 38622 ft 500 kts 20°
2026-04-26 17:35 13.67340 -68.33253 39103 ft 499 kts 20°
2026-04-26 17:35 13.70332 -68.32112 39516 ft 498 kts 20°
2026-04-26 17:35 13.73378 -68.30951 39921 ft 497 kts 20°
2026-04-26 17:36 13.76402 -68.29797 40377 ft 495 kts 19°
2026-04-26 17:36 13.79424 -68.28643 40728 ft 495 kts 19°
2026-04-26 17:36 13.82428 -68.27496 40969 ft 496 kts 19°
2026-04-26 17:37 13.88485 -68.25182 40949 ft 496 kts 20°
2026-04-26 17:37 13.94476 -68.22894 40956 ft 495 kts 20°
2026-04-26 17:38 14.03493 -68.19445 40955 ft 496 kts 19°
2026-04-26 17:38 14.09554 -68.17125 40950 ft 497 kts 19°
2026-04-26 17:39 14.15568 -68.14822 40949 ft 496 kts 19°
2026-04-26 17:39 14.21481 -68.12556 40947 ft 496 kts 19°
2026-04-26 17:40 14.25428 -68.11043 40952 ft 497 kts 19°
2026-04-26 17:40 14.33281 -68.08031 40950 ft 497 kts 19°
2026-04-26 17:41 14.39160 -68.05776 40947 ft 497 kts 19°
2026-04-26 17:41 14.45135 -68.03481 40950 ft 497 kts 19°
2026-04-26 17:42 14.51003 -68.01227 40949 ft 497 kts 19°
2026-04-26 17:42 14.56940 -67.98944 40949 ft 496 kts 19°
2026-04-26 17:43 14.62857 -67.96668 40952 ft 496 kts 19°
2026-04-26 17:43 14.68808 -67.94378 40953 ft 497 kts 19°
2026-04-26 17:44 14.74759 -67.92086 40953 ft 497 kts 19°
2026-04-26 17:44 14.80663 -67.89811 40954 ft 496 kts 19°
2026-04-26 17:45 14.86617 -67.87515 40952 ft 496 kts 19°
2026-04-26 17:45 14.92594 -67.85210 40955 ft 495 kts 19°
2026-04-26 17:46 14.98579 -67.82900 40954 ft 495 kts 19°
2026-04-26 17:46 15.04497 -67.80614 40957 ft 496 kts 18°
2026-04-26 17:47 15.09516 -67.78674 40957 ft 496 kts 18°
2026-04-26 17:47 15.16441 -67.75996 40952 ft 497 kts 19°
2026-04-26 17:48 15.22394 -67.73693 40952 ft 498 kts 18°
2026-04-26 17:48 15.28369 -67.71379 40956 ft 498 kts 18°
2026-04-26 17:49 15.34316 -67.69076 40955 ft 499 kts 18°
2026-04-26 17:49 15.40206 -67.66792 40959 ft 497 kts 18°
2026-04-26 17:50 15.46176 -67.64477 40960 ft 500 kts 18°
2026-04-26 17:50 15.52127 -67.62167 40960 ft 499 kts 18°
2026-04-26 17:51 15.58106 -67.59845 40962 ft 499 kts 18°
2026-04-26 17:51 15.64058 -67.57532 40962 ft 500 kts 18°
2026-04-26 17:52 15.70039 -67.55206 40966 ft 499 kts 18°
2026-04-26 17:52 15.74888 -67.53320 40967 ft 501 kts 18°
2026-04-26 17:53 15.81151 -67.50115 40967 ft 503 kts 34°
2026-04-26 17:54 15.87659 -67.43027 40972 ft 507 kts 57°
2026-04-26 17:54 15.91255 -67.37278 40964 ft 506 kts 58°
2026-04-26 17:55 15.94732 -67.31661 40958 ft 507 kts 58°
2026-04-26 17:55 15.98316 -67.25861 40956 ft 508 kts 58°
2026-04-26 17:56 16.01839 -67.20149 40955 ft 508 kts 58°
2026-04-26 17:57 16.08648 -67.09095 40962 ft 507 kts 58°
2026-04-26 17:57 16.12125 -67.03442 40950 ft 508 kts 58°
2026-04-26 17:58 16.19036 -66.92191 40950 ft 508 kts 58°
2026-04-26 17:59 16.24276 -66.83649 40950 ft 509 kts 58°
2026-04-26 17:59 16.27700 -66.78061 40961 ft 510 kts 58°
2026-04-26 18:00 16.31143 -66.72439 40961 ft 509 kts 58°
2026-04-26 18:00 16.34591 -66.66804 40963 ft 510 kts 58°
2026-04-26 18:01 16.38073 -66.61108 40966 ft 512 kts 58°
2026-04-26 18:01 16.41481 -66.55531 40967 ft 509 kts 58°
2026-04-26 18:02 16.44396 -66.50754 40970 ft 510 kts 58°
2026-04-26 18:02 16.48438 -66.44127 40972 ft 510 kts 58°
2026-04-26 18:03 16.51919 -66.38415 40976 ft 511 kts 58°
2026-04-26 18:03 16.55377 -66.32737 40962 ft 509 kts 58°
2026-04-26 18:04 16.58784 -66.27136 40968 ft 511 kts 58°
2026-04-26 18:05 16.64043 -66.18485 40969 ft 509 kts 58°
2026-04-26 18:05 16.67543 -66.12722 40972 ft 510 kts 58°
2026-04-26 18:06 16.70937 -66.07127 40972 ft 510 kts 58°
2026-04-26 18:06 16.74409 -66.01400 40972 ft 509 kts 58°
2026-04-26 18:07 16.77850 -65.95718 40975 ft 510 kts 58°
2026-04-26 18:07 16.81303 -65.90014 40975 ft 511 kts 58°
2026-04-26 18:08 16.84644 -65.84488 40976 ft 510 kts 58°
2026-04-26 18:08 16.88017 -65.78907 40978 ft 511 kts 58°
2026-04-26 18:09 16.91428 -65.73258 40985 ft 512 kts 58°
2026-04-26 18:09 16.94658 -65.67903 40983 ft 511 kts 58°
2026-04-26 18:10 16.98134 -65.62138 40987 ft 511 kts 58°
2026-04-26 18:10 17.01598 -65.56385 40986 ft 513 kts 58°
2026-04-26 18:11 17.05078 -65.50603 40989 ft 512 kts 58°
2026-04-26 18:11 17.08607 -65.44736 40993 ft 513 kts 58°
2026-04-26 18:12 17.12041 -65.39018 40990 ft 512 kts 58°
2026-04-26 18:12 17.15451 -65.33337 40980 ft 514 kts 58°
2026-04-26 18:13 17.18880 -65.27621 40981 ft 513 kts 58°
2026-04-26 18:13 17.22252 -65.21994 40982 ft 515 kts 58°
2026-04-26 18:14 17.25641 -65.16333 40986 ft 514 kts 58°
2026-04-26 18:14 17.29002 -65.10717 40989 ft 514 kts 58°
2026-04-26 18:14 17.30664 -65.07935 40574 ft 508 kts 58°
2026-04-26 18:15 17.32392 -65.05045 39354 ft 512 kts 58°
2026-04-26 18:15 17.34123 -65.02148 38375 ft 513 kts 58°
2026-04-26 18:15 17.35828 -64.99294 37574 ft 513 kts 58°
2026-04-26 18:15 17.37534 -64.96433 36725 ft 514 kts 58°
2026-04-26 18:16 17.39178 -64.93680 35887 ft 515 kts 58°
2026-04-26 18:16 17.42577 -64.87978 34101 ft 519 kts 58°
2026-04-26 18:16 17.44303 -64.85083 33184 ft 520 kts 58°
2026-04-26 18:17 17.46029 -64.82184 32300 ft 522 kts 58°
2026-04-26 18:17 17.47761 -64.79275 31393 ft 524 kts 58°
2026-04-26 18:17 17.49520 -64.76320 30478 ft 526 kts 58°
2026-04-26 18:17 17.51273 -64.73372 29933 ft 520 kts 58°
2026-04-26 18:18 17.53044 -64.70393 29388 ft 514 kts 57°
2026-04-26 18:18 17.54744 -64.67534 28809 ft 510 kts 57°
2026-04-26 18:18 17.56443 -64.64673 28197 ft 506 kts 58°
2026-04-26 18:18 17.58134 -64.61826 27583 ft 503 kts 58°
2026-04-26 18:19 17.59828 -64.58972 26955 ft 500 kts 58°
2026-04-26 18:19 17.61485 -64.56179 26326 ft 497 kts 58°
2026-04-26 18:19 17.63156 -64.53363 25733 ft 493 kts 58°
2026-04-26 18:19 17.64821 -64.50553 25425 ft 482 kts 58°
2026-04-26 18:20 17.66412 -64.47868 25129 ft 475 kts 58°
2026-04-26 18:20 17.67998 -64.45191 24690 ft 469 kts 58°
2026-04-26 18:20 17.69669 -64.42368 24145 ft 464 kts 58°
2026-04-26 18:20 17.70709 -64.40611 24026 ft 460 kts 58°
2026-04-26 18:21 17.72799 -64.37080 24001 ft 470 kts 58°
2026-04-26 18:21 17.74340 -64.34473 23997 ft 470 kts 58°
2026-04-26 18:21 17.75864 -64.31895 23994 ft 471 kts 58°
2026-04-26 18:21 17.77401 -64.29294 23991 ft 468 kts 58°
2026-04-26 18:22 17.78995 -64.26530 23990 ft 470 kts 62°
2026-04-26 18:22 17.80257 -64.23585 23987 ft 468 kts 71°
2026-04-26 18:22 17.81103 -64.20557 23993 ft 467 kts 77°
2026-04-26 18:22 17.81822 -64.17512 23993 ft 467 kts 77°
2026-04-26 18:23 17.82548 -64.14381 23809 ft 456 kts 77°
2026-04-26 18:23 17.83255 -64.11311 23156 ft 455 kts 78°
2026-04-26 18:23 17.84002 -64.08057 22321 ft 457 kts 77°
2026-04-26 18:23 17.84666 -64.05156 21768 ft 454 kts 77°
2026-04-26 18:24 17.85375 -64.02054 21316 ft 447 kts 78°
2026-04-26 18:24 17.86094 -63.98908 20821 ft 441 kts 78°
2026-04-26 18:24 17.86794 -63.95833 20248 ft 438 kts 77°
2026-04-26 18:24 17.87500 -63.92728 19599 ft 436 kts 77°
2026-04-26 18:25 17.88203 -63.89637 19021 ft 432 kts 77°
2026-04-26 18:25 17.88885 -63.86633 18781 ft 419 kts 78°
2026-04-26 18:25 17.89550 -63.83704 18670 ft 403 kts 77°
2026-04-26 18:25 17.90153 -63.81044 18613 ft 388 kts 77°
2026-04-26 18:26 17.90708 -63.78595 18604 ft 373 kts 78°
2026-04-26 18:26 17.91239 -63.76250 18600 ft 359 kts 78°
2026-04-26 18:26 17.91779 -63.73864 18578 ft 346 kts 78°
2026-04-26 18:26 17.92302 -63.71545 18243 ft 341 kts 78°
2026-04-26 18:27 17.92813 -63.69282 17794 ft 341 kts 78°
2026-04-26 18:27 17.93336 -63.66962 17317 ft 341 kts 78°
2026-04-26 18:27 17.93844 -63.64665 16951 ft 337 kts 78°
2026-04-26 18:27 17.94336 -63.62381 16591 ft 332 kts 78°
2026-04-26 18:28 17.94822 -63.60123 16200 ft 330 kts 78°
2026-04-26 18:28 17.95317 -63.57827 15772 ft 328 kts 78°
2026-04-26 18:28 17.95793 -63.55621 15384 ft 325 kts 78°
2026-04-26 18:28 17.96259 -63.53467 15018 ft 322 kts 78°
2026-04-26 18:29 17.96734 -63.51267 14662 ft 318 kts 78°
2026-04-26 18:29 17.97182 -63.49193 14275 ft 316 kts 77°
2026-04-26 18:29 17.97638 -63.47080 13891 ft 314 kts 77°
2026-04-26 18:29 17.98091 -63.44975 13520 ft 311 kts 77°
2026-04-26 18:30 17.98531 -63.42934 13162 ft 308 kts 77°
2026-04-26 18:30 17.98968 -63.40908 12767 ft 307 kts 77°
2026-04-26 18:30 17.99383 -63.38978 12419 ft 304 kts 77°
2026-04-26 18:30 17.99809 -63.37001 12062 ft 301 kts 77°
2026-04-26 18:31 18.00242 -63.34985 11685 ft 298 kts 78°
2026-04-26 18:31 18.00658 -63.33049 11283 ft 297 kts 78°
2026-04-26 18:31 18.01082 -63.31075 10874 ft 295 kts 78°
2026-04-26 18:31 18.01456 -63.29149 10566 ft 290 kts 86°
2026-04-26 18:32 18.01263 -63.27283 10441 ft 276 kts 110°
2026-04-26 18:32 18.00439 -63.25714 10403 ft 258 kts 132°
2026-04-26 18:32 17.99225 -63.24632 10301 ft 246 kts 152°
2026-04-26 18:32 17.97797 -63.24054 10079 ft 240 kts 171°
2026-04-26 18:33 17.96246 -63.24000 9781 ft 238 kts 190°
2026-04-26 18:33 17.94798 -63.24473 9476 ft 238 kts 208°
2026-04-26 18:33 17.93526 -63.25470 9170 ft 237 kts 228°
2026-04-26 18:33 17.92669 -63.26833 8929 ft 235 kts 247°
2026-04-26 18:34 17.92275 -63.28387 8622 ft 236 kts 260°
2026-04-26 18:34 17.92047 -63.29982 8369 ft 235 kts 260°
2026-04-26 18:34 17.91808 -63.31554 8100 ft 235 kts 259°
2026-04-26 18:34 17.91549 -63.33173 7821 ft 234 kts 259°
2026-04-26 18:35 17.91287 -63.34802 7547 ft 234 kts 263°
2026-04-26 18:35 17.91336 -63.36422 7272 ft 234 kts 282°
2026-04-26 18:35 17.91914 -63.37975 6989 ft 234 kts 302°
2026-04-26 18:35 17.92909 -63.39184 6708 ft 234 kts 321°
2026-04-26 18:36 17.94224 -63.39988 6417 ft 231 kts 341°
2026-04-26 18:36 17.95678 -63.40293 6151 ft 225 kts 359°
2026-04-26 18:36 17.97061 -63.40124 5863 ft 218 kts 17°
2026-04-26 18:36 17.98364 -63.39504 5555 ft 212 kts 36°
2026-04-26 18:37 17.99383 -63.38542 5260 ft 206 kts 53°
2026-04-26 18:37 18.00081 -63.37321 4948 ft 200 kts 71°
2026-04-26 18:37 18.00418 -63.35938 4624 ft 196 kts 83°
2026-04-26 18:37 18.00614 -63.34603 4316 ft 194 kts 83°
2026-04-26 18:38 18.00810 -63.33299 4019 ft 192 kts 83°
2026-04-26 18:38 18.01004 -63.32006 3712 ft 191 kts 84°
2026-04-26 18:38 18.01197 -63.30718 3404 ft 190 kts 84°
2026-04-26 18:38 18.01389 -63.29432 3106 ft 189 kts 84°
2026-04-26 18:39 18.01579 -63.28160 2817 ft 188 kts 84°
2026-04-26 18:39 18.01768 -63.26900 2516 ft 185 kts 84°
2026-04-26 18:39 18.01948 -63.25698 2256 ft 174 kts 84°
2026-04-26 18:39 18.02125 -63.24516 1943 ft 168 kts 84°
2026-04-26 18:40 18.02292 -63.23390 1738 ft 159 kts 84°
2026-04-26 18:40 18.02461 -63.22254 1701 ft 167 kts 84°
2026-04-26 18:40 18.02632 -63.21095 1703 ft 172 kts 84°
2026-04-26 18:40 18.02805 -63.19929 1633 ft 174 kts 84°
2026-04-26 18:41 18.02969 -63.18763 1354 ft 171 kts 84°
2026-04-26 18:41 18.03130 -63.17629 1057 ft 166 kts 84°
2026-04-26 18:41 18.03292 -63.16534 790 ft 161 kts 84°
2026-04-26 18:41 18.03468 -63.15503 706 ft 140 kts 83°
2026-04-26 18:42 18.03622 -63.14622 479 ft 133 kts 81°
2026-04-26 18:42 18.03756 -63.13710 279 ft 137 kts 87°
2026-04-26 18:42 18.03852 -63.12790 186 ft 130 kts 87°
2026-04-26 18:42 18.03954 -63.11898 56 ft 125 kts 86°
2026-04-26 18:43 18.04065 -63.11083 24 ft 92 kts 82°
2026-04-26 18:43 18.04133 -63.10634 23 ft 35 kts 73°
2026-04-26 18:43 18.04166 -63.10495 25 ft 9 kts 85°
2026-04-26 18:43 18.04155 -63.10474 25 ft 2 kts 176°
2026-04-26 18:44 18.04146 -63.10491 25 ft 7 kts 261°
2026-04-26 18:44 18.04131 -63.10607 23 ft 26 kts 263°
2026-04-26 18:44 18.04100 -63.10841 22 ft 34 kts 261°
2026-04-26 18:44 18.04067 -63.11064 23 ft 25 kts 262°
2026-04-26 18:45 18.04045 -63.11219 25 ft 12 kts 260°
2026-04-26 18:45 18.04069 -63.11278 25 ft 10 kts 332°
2026-04-26 18:45 18.04147 -63.11298 25 ft 13 kts 350°
2026-04-26 18:45 18.04223 -63.11310 26 ft 8 kts 354°
2026-04-26 18:46 18.04276 -63.11292 27 ft 5 kts 16°
2026-04-26 18:46 18.04315 -63.11290 27 ft 4 kts 359°
2026-04-26 18:46 18.04332 -63.11292 27 ft 1 kts 351°
2026-04-26 18:46 18.04336 -63.11293 27 ft 0 kts 351°